Location: Newark
(40.9833°N, 0.0333°W)
Time: 08:33:52
(UTC+00:00)

Transit 4A - Pass Details

Date: 02 November 2020
Orbit: 862 x 982 km, 66.8° (Epoch: 26 November)

Event Time Altitude Azimuth Distance (km) Brightness Sun altitude
Rises 00:54:52 0° 311° (NW) 3,681 - -59.6°
Reaches altitude 10° 00:58:53 10° 287° (WNW) 2,713 - -59.2°
Maximum altitude 01:01:48 14° 259° (W) 2,439 - -58.8°
Drops below altitude 10° 01:04:41 10° 231° (SW) 2,675 - -58.5°
Sets 01:08:37 0° 207° (SSW) 3,588 - -58.0°
